sat.trackr.live / text

‹ back to catalog

JAY-D1

NORAD 62669 · 2025-009BN

PAYLOAD ACTIVE UNKNOWN

§ Identity

Operator
Country
CA
Launch date
2025-01-14
Launch site
AFWTR
Launch vehicle
Mass (kg)
RCS (m²)

External: N2YO · Heavens-Above · Gunter

§ Orbital elements

Epoch: 2026-05-25T04:14:25.131264Z

Period
94.60 min
Inclination
97.4032°
Eccentricity
0.0006700
Mean motion
15.22147019 rev/d
Perigee alt
494.8 km
Apogee alt
504.0 km
Semi-major
6,877.5 km
B*
1.4623e-4
RAAN
224.8925°
Arg perigee
71.9096°
Mean anomaly
288.2869°
Rev number
13,287

§ Raw data

JAY-D11 62669U 25009BN  26145.17667976  .00003285  00000+0  14623-3 0  99982 62669  97.4032 224.8925 0006700  71.9096 288.2869 15.22147019132879

JSON: /api/v1/satellites/62669 · /tle

For live sub-satellite position, see the globe view (requires WebGL).

§ Visibility from observer

Set your observer location to see the next 7 days of passes ≥ 10°. The values pass through the URL so the page stays shareable.

No JS? Fill the form by hand. The geolocation button needs JavaScript.